Location: Hradec Kralove
(50.2170°N, 15.8330°E)
Time: 03:22:11
(UTC+02:00)

AO-85 - Visible Passes

Search period start: 13 July 2024 00:00
Search period end: 23 July 2024 00:00
Orbit: 488 x 755 km, 64.8° (Epoch: 12 July)

Date Brightness Start Highest point End Pass type
(mag) Time Alt. Az. Time Alt. Az. Time Alt. Az.
13 Jul ? 02:55:36 20° S 02:58:36 52° ESE 03:03:30 10° NE visible
14 Jul ? 01:35:59 14° SE 01:37:26 16° ESE 01:40:27 10° ENE visible
14 Jul ? 03:13:10 18° SW 03:16:40 90° NW 03:21:47 10° NE visible
15 Jul ? 01:53:30 24° SSE 01:55:08 30° ESE 01:59:28 10° NE visible
15 Jul ? 03:30:40 13° WSW 03:34:53 55° NW 03:39:56 10° NE visible
16 Jul ? 02:10:58 31° S 02:13:01 54° ESE 02:17:57 10° NE visible
16 Jul ? 03:48:47 10° WSW 03:53:16 36° NW 03:58:01 10° NNE visible
17 Jul ? 00:51:13 17° ESE 00:51:48 17° ESE 00:54:57 10° ENE visible
17 Jul ? 02:28:23 27° SW 02:31:03 87° NW 02:36:12 10° NE visible
17 Jul ? 04:07:38 10° W 04:11:46 26° NNW 04:16:06 10° NNE visible
18 Jul ? 01:08:35 29° SE 01:09:29 31° ESE 01:13:53 10° NE visible
18 Jul ? 02:45:44 17° WSW 02:49:16 53° NW 02:54:19 10° NE visible
18 Jul ? 04:26:41 10° WNW 04:30:23 20° NNW 04:34:15 10° NNE visible
19 Jul ? 01:25:53 40° S 01:27:21 56° ESE 01:32:20 10° NE visible
19 Jul ? 03:03:10 10° W 03:07:38 35° NW 03:12:23 10° NNE visible
20 Jul ? 00:06:00 18° ESE 00:06:05 18° ESE 00:09:23 10° ENE visible
20 Jul ? 01:43:08 32° SW 01:45:23 84° NW 01:50:32 10° NE visible
20 Jul ? 03:22:02 10° W 03:26:08 25° NNW 03:30:27 10° NNE visible
21 Jul ? 00:23:11 31° SE 00:23:46 33° ESE 00:28:14 10° NE visible
21 Jul ? 02:00:19 19° WSW 02:03:36 51° NW 02:08:38 10° NE visible
21 Jul ? 03:41:02 10° WNW 03:44:45 20° NNW 03:48:35 10° NNE visible
22 Jul ? 00:40:18 43° S 00:41:38 59° ESE 00:46:38 10° NE visible
22 Jul ? 02:17:29 10° W 02:21:57 34° NW 02:26:40 10° NNE visible
22 Jul ? 04:00:05 10° NW 04:03:26 17° N 04:06:52 10° NNE visible
22 Jul ? 23:20:12 19° ESE 23:20:19 19° ESE 23:23:44 10° ENE visible
